| time (UTC) | temp C | wind direction | speed KPH | gust KPH | rain 1hr cm | rain 24hr cm | rain mn cm | humidity % | barometer mb |
| 20260505013312 | 12 | 45 | 3.2 | 8.0 | 0.00 | 0.00 | 0.00 | 65 | 1008.2 |
| 20260505012312 | 12 | 45 | 4.8 | 6.4 | 0.00 | 0.00 | 0.00 | 64 | 1008.2 |
| 20260505010311 | 12 | 45 | 4.8 | 4.8 | 0.00 | 0.00 | 0.00 | 64 | 1008.5 |
| 20260505004311 | 13 | 22 | 3.2 | 6.4 | 0.00 | 0.00 | 0.00 | 58 | 1008.7 |
| 20260505003313 | 13 | 22 | 4.8 | 8.0 | 0.00 | 0.00 | 0.00 | 58 | 1008.6 |
| 20260505002311 | 13 | 45 | 6.4 | 8.0 | 0.00 | 0.00 | 0.00 | 59 | 1008.6 |
| 20260505001310 | 13 | 22 | 8.0 | 9.7 | 0.00 | 0.00 | 0.00 | 57 | 1008.7 |
| 20260505000311 | 13 | 45 | 6.4 | 8.0 | 0.00 | 0.00 | 0.00 | 60 | 1008.6 |
| 20260504234310 | 13 | 22 | 3.2 | 6.4 | 0.00 | 0.00 | 0.00 | 60 | 1008.9 |
| 20260504233310 | 13 | 0 | 0.0 | 6.4 | 0.00 | 0.00 | 0.00 | 61 | 1008.8 |
| 20260504232310 | 13 | 0 | 0.0 | 6.4 | 0.00 | 0.00 | 0.00 | 60 | 1008.8 |
| 20260504225309 | 15 | 0 | 0.0 | 0.0 | 0.00 | 0.00 | 0.00 | 55 | 1008.9 |
| 20260504223311 | 16 | 22 | 4.8 | 8.0 | 0.00 | 0.00 | 0.00 | 52 | 1009.1 |
| 20260504222309 | 16 | 22 | 3.2 | 4.8 | 0.00 | 0.00 | 0.00 | 55 | 1008.9 |
| 20260504221309 | 16 | 360 | 1.6 | 4.8 | 0.00 | 0.00 | 0.00 | 48 | 1009.5 |
| 20260504220314 | 16 | 45 | 9.7 | 16.1 | 0.00 | 0.00 | 0.00 | 51 | 1010.2 |
| 20260504215314 | 16 | 67 | 6.4 | 16.1 | 0.00 | 0.00 | 0.00 | 54 | 1010.1 |
| 20260504211314 | 17 | 202 | 0.0 | 4.8 | 0.00 | 0.00 | 0.00 | 48 | 1010.3 |
| 20260504210313 | 17 | 360 | 4.8 | 12.9 | 0.00 | 0.00 | 0.00 | 49 | 1009.8 |
| 20260504204313 | 16 | 67 | 12.9 | 19.3 | 0.00 | 0.00 | 0.00 | 49 | 1010.1 |
| 20260504203314 | 16 | 90 | 3.2 | 8.0 | 0.00 | 0.00 | 0.00 | 50 | 1010.3 |
| 20260504202313 | 16 | 45 | 8.0 | 12.9 | 0.00 | 0.00 | 0.00 | 49 | 1010.3 |
| 20260504201312 | 17 | 22 | 9.7 | 16.1 | 0.00 | 0.00 | 0.00 | 48 | 1010.5 |
| 20260504200312 | 17 | 22 | 6.4 | 14.5 | 0.00 | 0.00 | 0.00 | 46 | 1010.4 |
| 20260504195315 | 17 | 360 | 16.1 | 20.9 | 0.00 | 0.00 | 0.00 | 46 | 1010.4 |
| 20260504194312 | 17 | 360 | 3.2 | 22.5 | 0.00 | 0.00 | 0.00 | 45 | 1010.4 |
| 20260504193313 | 16 | 360 | 9.7 | 20.9 | 0.00 | 0.00 | 0.00 | 46 | 1010.3 |
| 20260504191312 | 16 | 337 | 0.0 | 4.8 | 0.00 | 0.00 | 0.00 | 50 | 1009.9 |
| 20260504190311 | 17 | 67 | 0.0 | 4.8 | 0.00 | 0.00 | 0.00 | 46 | 1009.9 |
| 20260504185311 | 18 | 360 | 6.4 | 12.9 | 0.00 | 0.00 | 0.00 | 40 | 1009.4 |
| 20260504184311 | 18 | 22 | 6.4 | 12.9 | 0.00 | 0.00 | 0.00 | 40 | 1009.1 |
| 20260504183311 | 18 | 22 | 6.4 | 11.3 | 0.00 | 0.00 | 0.00 | 42 | 1009.1 |
| 20260504182311 | 18 | 67 | 3.2 | 11.3 | 0.00 | 0.00 | 0.00 | 35 | 1009.0 |
| 20260504181311 | 19 | 0 | 0.0 | 4.8 | 0.00 | 0.00 | 0.00 | 35 | 1008.9 |
| 20260504180311 | 20 | 0 | 0.0 | 11.3 | 0.00 | 0.00 | 0.00 | 33 | 1009.1 |
| 20260504175311 | 20 | 67 | 3.2 | 16.1 | 0.00 | 0.00 | 0.00 | 33 | 1009.1 |
| 20260504174311 | 20 | 67 | 1.6 | 4.8 | 0.00 | 0.00 | 0.00 | 40 | 1008.9 |
| 20260504173310 | 20 | 67 | 1.6 | 4.8 | 0.00 | 0.00 | 0.00 | 37 | 1008.7 |
| 20260504172310 | 20 | 67 | 0.0 | 8.0 | 0.00 | 0.00 | 0.00 | 36 | 1008.7 |
| 20260504171310 | 20 | 45 | 4.8 | 6.4 | 0.00 | 0.00 | 0.00 | 36 | 1008.7 |
| 20260504170310 | 21 | 67 | 1.6 | 6.4 | 0.00 | 0.00 | 0.00 | 35 | 1008.7 |
| 20260504160309 | 22 | 0 | 0.0 | 6.4 | 0.00 | 0.00 | 0.00 | 34 | 1009.4 |
| 20260504141313 | 22 | 180 | 8.0 | 11.3 | 0.00 | 0.00 | 0.00 | 39 | 1010.2 |
| 20260504140312 | 22 | 202 | 0.0 | 12.9 | 0.00 | 0.00 | 0.00 | 38 | 1010.5 |
| 20260504130312 | 22 | 202 | 8.0 | 14.5 | 0.00 | 0.00 | 0.00 | 37 | 1011.1 |
| 20260504120311 | 21 | 90 | 0.0 | 14.5 | 0.00 | 0.00 | 0.00 | 43 | 1011.5 |
| 20260504110310 | 21 | 180 | 3.2 | 12.9 | 0.00 | 0.00 | 0.00 | 45 | 1012.4 |
| 20260504100309 | 20 | 247 | 0.0 | 8.0 | 0.00 | 0.00 | 0.00 | 49 | 1013.1 |
| 20260504081313 | 17 | 202 | 6.4 | 11.3 | 0.00 | 0.00 | 0.00 | 62 | 1012.8 |
| 20260504080313 | 17 | 180 | 8.0 | 9.7 | 0.00 | 0.00 | 0.00 | 56 | 1012.6 |
| 20260504070312 | 15 | 202 | 1.6 | 4.8 | 0.00 | 0.00 | 0.00 | 56 | 1012.3 |
| 20260504050310 | 10 | 0 | 0.0 | 1.6 | 0.00 | 0.00 | 0.00 | 72 | 1011.4 |
| 20260504045310 | 10 | 45 | 0.0 | 6.4 | 0.00 | 0.00 | 0.00 | 74 | 1011.6 |
| 20260504043310 | 10 | 45 | 3.2 | 4.8 | 0.00 | 0.00 | 0.00 | 74 | 1011.4 |
| 20260504042310 | 9 | 45 | 4.8 | 6.4 | 0.00 | 0.00 | 0.00 | 75 | 1011.4 |
| 20260504041310 | 9 | 22 | 1.6 | 4.8 | 0.00 | 0.00 | 0.00 | 74 | 1011.5 |
| 20260504040309 | 9 | 45 | 6.4 | 6.4 | 0.00 | 0.00 | 0.00 | 75 | 1011.6 |
| 20260504035310 | 9 | 45 | 4.8 | 6.4 | 0.00 | 0.00 | 0.00 | 73 | 1011.6 |
| 20260504033309 | 10 | 45 | 6.4 | 6.4 | 0.00 | 0.00 | 0.00 | 71 | 1011.7 |
| 20260504032309 | 10 | 22 | 6.4 | 8.0 | 0.00 | 0.00 | 0.00 | 72 | 1011.7 |
| 20260504031314 | 10 | 22 | 6.4 | 8.0 | 0.00 | 0.00 | 0.00 | 71 | 1011.7 |
| 20260504030314 | 11 | 45 | 6.4 | 9.7 | 0.00 | 0.00 | 0.00 | 68 | 1011.9 |
| 20260504023313 | 10 | 45 | 6.4 | 9.7 | 0.00 | 0.00 | 0.00 | 69 | 1011.6 |
| 20260504022313 | 11 | 45 | 6.4 | 11.3 | 0.00 | 0.00 | 0.00 | 69 | 1011.8 |
| 20260504021313 | 11 | 360 | 4.8 | 8.0 | 0.00 | 0.00 | 0.00 | 69 | 1011.6 |
| 20260504015313 | 11 | 22 | 6.4 | 9.7 | 0.00 | 0.00 | 0.00 | 66 | 1011.5 |